Home > Weather > Lehrte > Past weeks

Flag for Germany Past Weather in Lehrte, Lower Saxony, Germany — Yesterday and Last 2 Weeks

Now
84 °F

Passing clouds.


Feels Like: 84 °F
Forecast: 67 / 91 °F
Wind: 8 mph from Northeast

Location: Hannover

Current Time: Aug 27, 2016 at 3:37:25 PM

Latest Report: Aug 27, 2016 at 3:20 PM


Visibility: N/A

Pressure: 30.07 "Hg

Humidity: 45%

Dew Point: 61 °F

Location of LehrteLocation

Past Weather in Lehrte — Graph

°F

Lehrte Temperature Yesterday

Maximum temperature yesterday: 91 °F (at 12:50 PM)
Minimum temperature yesterday: 64 °F (at 5:50 AM)
Average temperature yesterday: 79 °F

High & Low Weather Summary for the Past Weeks

 TemperatureHumidityPressure
High91 °F (Aug 25, 4:50 PM)100% (Aug 13, 4:20 AM)30.33 "Hg (Aug 13, 4:20 AM)
Low45 °F (Aug 18, 5:50 AM)20% (Aug 25, 6:50 PM)29.80 "Hg (Aug 18, 3:20 PM)
Average66 °F71%30.08 "Hg
* Reported Aug 12 2:20 PM — Aug 27 2:20 PM, Lehrte, Weather by CustomWeather, © 2016

Note: Actual official high and low records may vary slightly from our data, if they occured in-between our weather recording intervals... More about our weather records

Advertising

Lehrte Weather History for the Previous 24 Hours

Scroll right to see more
 ConditionsComfort  
Time TempWeatherWind HumidityBarometerVisibility
2:20 PM
Sat, Aug 27
82 °FPassing clouds.8 mph45%30.09 "HgN/A
1:50 PM81 °FPassing clouds.8 mph48%30.09 "HgN/A
1:20 PM81 °FPassing clouds.7 mph51%30.12 "HgN/A
12:50 PM79 °FPassing clouds.7 mph54%30.12 "HgN/A
12:20 PM77 °FPassing clouds.8 mph54%30.12 "HgN/A
11:50 AM75 °FSunny.8 mph57%30.12 "Hg10 mi
11:20 AM73 °FPassing clouds.7 mph61%30.12 "HgN/A
10:50 AM72 °FPassing clouds.6 mph65%30.15 "HgN/A
10:20 AM72 °FPassing clouds.5 mph69%30.15 "HgN/A
9:50 AM70 °FPassing clouds.6 mph78%30.15 "HgN/A
9:20 AM68 °FScattered clouds.6 mph83%30.15 "HgN/A
8:50 AM66 °FScattered clouds.7 mph83%30.15 "HgN/A
8:20 AM64 °FPassing clouds.7 mph88%30.15 "HgN/A
7:50 AM63 °FPassing clouds.5 mph94%30.12 "HgN/A
7:20 AM63 °FFog.3 mph94%30.15 "Hg6 mi
6:50 AM61 °FFog.3 mph94%30.12 "Hg5 mi
6:20 AM61 °FFog.5 mph94%30.12 "Hg6 mi
5:50 AM61 °FFog.3 mph94%30.12 "Hg5 mi
5:20 AM61 °FPassing clouds.1 mph94%30.12 "HgN/A
4:50 AM61 °FPassing clouds.1 mph94%30.12 "HgN/A
4:20 AM63 °FPassing clouds.5 mph88%30.12 "HgN/A
3:50 AM63 °FPassing clouds.5 mph88%30.12 "HgN/A
3:20 AM63 °FPassing clouds.5 mph88%30.12 "HgN/A
2:50 AM63 °FPassing clouds.3 mph88%30.12 "HgN/A
2:20 AM64 °FPassing clouds.5 mph83%30.12 "HgN/A
1:50 AM66 °FPassing clouds.3 mph73%30.12 "HgN/A
1:20 AM66 °FPassing clouds.3 mph73%30.12 "HgN/A
12:50 AM68 °FPassing clouds.5 mph69%30.09 "HgN/A
12:20 AM70 °FClear.7 mph60%30.09 "Hg10 mi
11:50 PM
Fri, Aug 26
70 °FClear.8 mph64%30.09 "Hg10 mi
11:20 PM72 °FClear.5 mph73%30.09 "Hg10 mi
10:50 PM72 °FPassing clouds.5 mph73%30.07 "HgN/A
10:20 PM73 °FClear.7 mph69%30.07 "Hg10 mi
9:50 PM75 °FClear.7 mph65%30.07 "Hg10 mi
9:20 PM77 °FSunny.7 mph61%30.04 "Hg10 mi
8:50 PM77 °FSunny.9 mph61%30.04 "Hg10 mi
8:20 PM81 °FSunny.10 mph58%30.04 "Hg10 mi
7:50 PM82 °FSunny.12 mph58%30.01 "Hg10 mi
7:20 PM86 °FSunny.7 mph55%30.01 "Hg10 mi
6:50 PM88 °FSunny.7 mph49%30.01 "Hg10 mi
6:20 PM90 °FSunny.8 mph43%30.01 "Hg10 mi
5:50 PM91 °FPassing clouds.7 mph38%30.01 "HgN/A
5:20 PM91 °FPassing clouds.6 mph38%30.01 "HgN/A
4:50 PM91 °FPassing clouds.7 mph38%30.01 "HgN/A
4:20 PM91 °FPassing clouds.8 mph36%30.01 "HgN/A
3:50 PM91 °FSunny.9 mph36%30.01 "Hg10 mi
3:20 PM91 °FPassing clouds.8 mph34%29.98 "HgN/A
Weather by CustomWeather, © 2016

See weather overviewHow to use our weather pages